Location: Artiguedieu
(43.5000°N, 0.5454°E)
Time: 12:03:08
(UTC+00:00)

Cosmos 1805 Rocket - Pass Details

Date: 06 December 2020
Orbit: 605 x 631 km, 82.5° (Epoch: 27 January)

Event Time Altitude Azimuth Distance (km) Brightness Sun altitude
Rises 05:32:47 0° 203° (SSW) 2,900 6.9 -18.1°
Reaches altitude 10° 05:35:06 10° 210° (SSW) 2,001 6.0 -17.7°
Maximum altitude 05:39:20 43° 283° (WNW) 886 3.9 -17.0°
Drops below altitude 10° 05:43:37 10° 355° (N) 2,021 6.0 -16.2°
Sets 05:45:58 0° 2° (N) 2,933 6.9 -15.8°
